Regional Weather Roundup
Issued by NWS

Home | Current Version | Previous Version | Graphics & Text | Print | Product List | Glossary On
Versions: 1 2 3 4 5 6 7 8 9 10 11 12 13 14 15 16 17 18 19 20 21 22 23 24 25 26 27 28 29 30 31 32 33 34 35 36 37 38 39 40 41 42 43 44 45 46 47 48 49 50
000
ASUS45 KABQ 232310
RWRNM
NEW MEXICO REGIONAL WEATHER ROUNDUP
NATIONAL WEATHER SERVICE ALBUQUERQUE NM
500 PM MDT MON MAY 23 2016

NOTE: "FAIR" MEANS FEW OR NO CLOUDS BELOW 12,000 FEET AGL WITH NO
       SIGNIFICANT WEATHER OR OBSTRUCTIONS TO VISION.

      THIS PRODUCT IS RELEASED AS TWO VERSIONS.  ONE VERSION NEAR
      THE TOP OF THE HOUR CONTAINING PRELIMINARY DATA FROM ALBUQUERQUE
      AND OTHER STATIONS.  A FINAL VERSION WITH ADDITIONAL DATA IS
      ISSUED ABOUT 10 MINUTES AFTER THE HOUR.

NMZ501-503-504-510>518-240000-
NORTHWEST PLATEAU/NORTHCENTRAL MOUNTAINS

CITY           SKY/WX    TMP DP  RH WIND       PRES   REMARKS
FARMINGTON     FAIR      75  11   8 VRB5      29.86F
LOS ALAMOS     PTSUNNY   69  21  16 S8G16     29.98F
SANTA FE       FAIR      78  19  11 SW17G33   29.92F
TAOS           FAIR      72  21  15 SW14G26   29.96S
ANGEL FIRE     FAIR      64  24  22 SW13G28   30.03R

$$
NMZ402-403-502-505>509-240000-
WESTCENTRAL MOUNTAINS/SOUTHWEST MOUNTAINS

CITY           SKY/WX    TMP DP  RH WIND       PRES   REMARKS
GALLUP         FAIR      73  14  10 SW26G35   29.95F
GRANTS         FAIR      76  21  13 W18G25    29.95S
SILVER CITY      N/A     81  16   9 W17G28    29.95F

$$
NMZ407-409-411-412-240000-
SOUTHERN DESERTS

CITY           SKY/WX    TMP DP  RH WIND       PRES   REMARKS
LORDSBURG      FAIR      88  14   6 W22       29.85F
DEMING         FAIR      88  14   6 W23G31    29.85F
LAS CRUCES     FAIR      88  16   7 SW13G25   29.86F
ALAMOGORDO     FAIR      86  21   9 SW9G16    29.84F
T OR C         FAIR      86  10   6 W21G33    29.83F

$$
NMZ519>523-240000-
CENTRAL VALLEYS/CENTRAL HIGHLANDS

CITY           SKY/WX    TMP DP  RH WIND       PRES   REMARKS
ALBUQUERQUE    FAIR      83  20   9 SW8G20    29.84F
DOUBLE EAGLE   MOSUNNY   77  25  14 E7        29.89F
MORIARTY ARPT  FAIR      80  15   9 SW15G29   29.93F
CLINES CORNERS FAIR      75  19  12 W25G40    29.96F
BELEN          FAIR      85  16   7 S15G24    29.82F
SOCORRO        FAIR      87  13   6 SW13G20   29.81S

$$
NMZ524>526-539-540-240000-
SOUTHCENTRAL MOUNTAINS

CITY           SKY/WX    TMP DP  RH WIND       PRES   REMARKS
RUIDOSO          N/A     75  14   9 SW29G35   30.01F

$$
NMZ527>531-240000-
NORTHEAST HIGHLANDS/NORTHEAST PLAINS

CITY           SKY/WX    TMP DP  RH WIND       PRES   REMARKS
LAS VEGAS      FAIR      73  18  12 SW20G33   29.94F
RATON          FAIR      75  20  12 W18       29.85S
CLAYTON        FAIR      84  27  12 S20G29    29.80F

$$
NMZ532>537-240000-
EASTCENTRAL PLAINS

CITY           SKY/WX    TMP DP  RH WIND       PRES   REMARKS
TUCUMCARI      FAIR      90  23   9 SW16G22   29.75F
CANNON AFB     NOT AVBL
CLOVIS AIRPORT FAIR      88  34  14 SW10G22   29.81S

$$
NMZ028-029-538-240000-
SOUTHEAST PLAINS

CITY           SKY/WX    TMP DP  RH WIND       PRES   REMARKS
ROSWELL        FAIR      95  18   6 W25G40    29.74S
ARTESIA        FAIR      93  21   7 SW26G36   29.76S
CARLSBAD       FAIR      96  17   5 W16G26    29.74F
HOBBS          SUNNY     93  23   8 SW17      29.79F


$$



USA.gov is the U.S. government's official web portal to all federal, state and local government web resources and services.